Weather History for Columbia, MO

Change the Weather History Date:

Sunday, January 19, 2014

  Actual Average Record
Temperature  
Mean Temperature 36 °F 30 °F  
Max Temperature 54 °F 38 °F 70 °F (1952)
Min Temperature 17 °F 21 °F -15 °F (1940)
Degree Days  
Heating Degree Days 29 35  
Month to date heating degree days 741 678  
Since 1 July heating degree days 2828 2673  
Cooling Degree Days 0 0  
Month to date cooling degree days 0 0  
Year to date cooling degree days 0 0  
Moisture  
Dew Point 20 °F    
Average Humidity 56    
Maximum Humidity 84    
Minimum Humidity 28    
Precipitation  
Precipitation 0.00 in 0.05 in 1.74 in (1995)
Month to date precipitation 0.90 1.17  
Year to date precipitation 0.90 1.17  
Snow  
Snow 0.00 in 0.20 in 18.00 in (1995)
Month to date snowfall 7.5 3.7  
Since 1 July snowfall 9.9 9.0  
Snow Depth 0.00 in    
Sea Level Pressure  
Sea Level Pressure 29.95 in    
Wind  
Wind Speed 13 mph (WSW)    
Max Wind Speed 25 mph    
Max Gust Speed 33 mph    
Visibility 10 miles    
Events      
T = Trace of Precipitation, MM = Missing Value Source: NWS Daily Summary

Daily Weather History Graph

Daily Weather History Graph

Search for Another Location

Airport:

Trip Planner

Search our weather history database for the weather conditions in past years. The results will help you decide how hot, cold, wet, or windy it might be!

Date:

Astronomy

Jan. 19, 2014 Rise Set
Actual Time 7:24 AM CST 5:15 PM CST
Civil Twilight 6:55 AM CST 5:44 PM CST
Nautical Twilight 6:22 AM CST 6:17 PM CST
Astronomical Twilight 5:50 AM CST 6:48 PM CST
Moon 8:51 PM CST (1/19) 8:56 AM CST (1/19)
Length of Visible Light 10h 49m
Length of Day
9h 51m
Waning Gibbous, 89% of the Moon is Illuminated
Jan 19
Waning Gibbous
Jan 23
Last Quarter
Jan 30
New
Feb 6
First Quarter
Feb 14
Full

Hourly Weather History & Observations

Time (CST) Temp. Windchill Dew Point Humidity Pressure Visibility Wind Dir Wind Speed Gust Speed Precip Events Conditions
12:54 AM 24.1 °F 12.5 °F 16.0 °F 71% 30.07 in 10.0 mi NW 12.7 mph - N/A   Overcast
1:34 AM 21.9 °F 11.0 °F 15.1 °F 75% 30.06 in 10.0 mi NW 10.4 mph - N/A   Scattered Clouds
1:54 AM 21.9 °F 13.4 °F 15.1 °F 75% 30.09 in 10.0 mi WNW 6.9 mph - N/A   Scattered Clouds
2:54 AM 21.0 °F 11.4 °F 15.1 °F 78% 30.10 in 10.0 mi West 8.1 mph - N/A   Clear
3:54 AM 19.9 °F 11.1 °F 15.1 °F 81% 30.07 in 10.0 mi WSW 6.9 mph - N/A   Clear
4:54 AM 19.0 °F 8.2 °F 15.1 °F 85% 30.05 in 10.0 mi WSW 9.2 mph - N/A   Clear
5:54 AM 19.0 °F 8.2 °F 14.0 °F 81% 30.07 in 10.0 mi SW 9.2 mph - N/A   Clear
6:54 AM 17.1 °F 5.8 °F 14.0 °F 88% 30.06 in 10.0 mi SW 9.2 mph - N/A   Clear
7:54 AM 19.9 °F 8.6 °F 15.1 °F 81% 30.06 in 10.0 mi SW 10.4 mph - N/A   Clear
8:54 AM 24.1 °F 12.0 °F 18.0 °F 77% 30.07 in 10.0 mi SW 13.8 mph - N/A   Clear
9:54 AM 30.0 °F 19.1 °F 19.9 °F 66% 30.07 in 10.0 mi SW 15.0 mph - N/A   Clear
10:54 AM 37.9 °F 28.9 °F 23.0 °F 55% 30.04 in 10.0 mi SW 16.1 mph - N/A   Clear
11:54 AM 42.1 °F 33.3 °F 23.0 °F 47% 29.96 in 10.0 mi SSW 19.6 mph - N/A   Clear
12:54 PM 48.9 °F - 23.0 °F 36% 29.90 in 10.0 mi SW 23.0 mph 28.8 mph N/A   Clear
1:54 PM 51.1 °F - 21.9 °F 32% 29.86 in 10.0 mi SSW 19.6 mph - N/A   Clear
2:54 PM 53.1 °F - 21.9 °F 30% 29.83 in 10.0 mi SSW 17.3 mph - N/A   Clear
3:54 PM 54.0 °F - 21.9 °F 29% 29.81 in 10.0 mi SW 15.0 mph 24.2 mph N/A   Clear
4:54 PM 50.0 °F - 23.0 °F 35% 29.82 in 10.0 mi SW 11.5 mph - N/A   Clear
5:54 PM 48.0 °F - 23.0 °F 37% 29.82 in 10.0 mi SW 12.7 mph - N/A   Clear
6:54 PM 46.0 °F 39.9 °F 24.1 °F 42% 29.82 in 10.0 mi SW 13.8 mph - N/A   Clear
7:54 PM 46.0 °F 39.9 °F 25.0 °F 44% 29.82 in 10.0 mi SW 13.8 mph - N/A   Clear
8:54 PM 46.0 °F 41.0 °F 26.1 °F 46% 29.82 in 10.0 mi WSW 10.4 mph - N/A   Clear
9:54 PM 46.9 °F - 26.1 °F 44% 29.82 in 10.0 mi WSW 12.7 mph - N/A   Clear
10:54 PM 46.9 °F - 26.1 °F 44% 29.81 in 10.0 mi WSW 10.4 mph - N/A   Clear
11:54 PM 48.0 °F - 26.1 °F 42% 29.82 in 10.0 mi West 12.7 mph - N/A   Clear